TimeCST,TemperatureF,Dew PointF,Humidity,Sea Level PressureIn,VisibilityMPH,Wind Direction,Wind SpeedMPH,Gust SpeedMPH,PrecipitationIn,Events,Conditions,WindDirDegrees,DateUTC
12:15 AM,16.3,9.5,74,29.77,10.0,WNW,13.8,-,N/A,,Overcast,290,2014-01-17 06:15:00
12:35 AM,15.3,10.2,80,29.77,5.0,WNW,16.1,-,N/A,Snow,Light Snow,300,2014-01-17 06:35:00
12:55 AM,14.9,9.0,77,29.78,10.0,WNW,18.4,23.0,N/A,Snow,Light Snow,290,2014-01-17 06:55:00
1:15 AM,14.4,8.8,79,29.78,5.0,WNW,19.6,25.3,N/A,Snow,Light Snow,300,2014-01-17 07:15:00
1:35 AM,14.4,8.6,78,29.79,10.0,West,13.8,19.6,N/A,Snow,Light Snow,280,2014-01-17 07:35:00
1:55 AM,14.4,8.4,77,29.80,10.0,WNW,15.0,-,N/A,Snow,Light Snow,290,2014-01-17 07:55:00
2:15 AM,13.6,7.7,77,29.80,10.0,WNW,12.7,-,N/A,Snow,Light Snow,290,2014-01-17 08:15:00
2:35 AM,13.5,7.7,78,29.81,7.0,WNW,15.0,18.4,N/A,Snow,Light Snow,290,2014-01-17 08:35:00
2:55 AM,12.7,7.3,79,29.81,7.0,West,15.0,19.6,N/A,Snow,Light Snow,280,2014-01-17 08:55:00
3:15 AM,12.2,5.9,76,29.82,7.0,WNW,16.1,21.9,N/A,Snow,Light Snow,290,2014-01-17 09:15:00
3:35 AM,12.2,5.9,76,29.82,7.0,West,15.0,21.9,N/A,Snow,Light Snow,280,2014-01-17 09:35:00
3:55 AM,11.8,5.7,76,29.83,10.0,WNW,15.0,19.6,N/A,Snow,Light Snow,290,2014-01-17 09:55:00
4:15 AM,11.8,5.5,76,29.83,10.0,WNW,15.0,20.7,N/A,,Overcast,290,2014-01-17 10:15:00
4:35 AM,11.3,4.8,75,29.83,10.0,WNW,13.8,19.6,N/A,,Overcast,290,2014-01-17 10:35:00
4:55 AM,11.1,4.8,76,29.84,10.0,WNW,12.7,20.7,N/A,,Overcast,290,2014-01-17 10:55:00
5:15 AM,10.8,4.1,75,29.84,10.0,West,12.7,18.4,N/A,,Overcast,280,2014-01-17 11:15:00
5:35 AM,10.6,4.1,75,29.85,10.0,WNW,11.5,-,N/A,,Overcast,290,2014-01-17 11:35:00
5:55 AM,10.4,3.9,75,29.85,10.0,WNW,13.8,18.4,N/A,,Overcast,290,2014-01-17 11:55:00
6:15 AM,10.4,4.5,77,29.86,10.0,WNW,11.5,-,N/A,,Overcast,290,2014-01-17 12:15:00
6:35 AM,9.5,3.7,77,29.86,10.0,WNW,12.7,18.4,N/A,,Overcast,290,2014-01-17 12:35:00
6:55 AM,9.5,4.1,79,29.87,10.0,West,9.2,-,N/A,,Overcast,280,2014-01-17 12:55:00
7:15 AM,9.5,3.7,77,29.88,10.0,West,10.4,18.4,N/A,,Overcast,280,2014-01-17 13:15:00
7:35 AM,9.5,3.6,77,29.88,10.0,West,12.7,17.3,N/A,,Overcast,280,2014-01-17 13:35:00
7:55 AM,9.3,3.0,76,29.89,10.0,West,12.7,18.4,N/A,,Overcast,280,2014-01-17 13:55:00
8:15 AM,9.3,3.2,76,29.89,10.0,West,10.4,16.1,N/A,,Overcast,280,2014-01-17 14:15:00
8:35 AM,9.5,3.6,77,29.90,10.0,West,12.7,17.3,N/A,,Overcast,280,2014-01-17 14:35:00
8:55 AM,10.0,3.9,76,29.91,10.0,West,13.8,17.3,N/A,,Overcast,280,2014-01-17 14:55:00
9:15 AM,10.8,4.3,75,29.91,10.0,West,11.5,-,N/A,,Overcast,280,2014-01-17 15:15:00
9:35 AM,11.1,4.6,75,29.92,10.0,WNW,12.7,16.1,N/A,,Overcast,300,2014-01-17 15:35:00
9:55 AM,12.2,5.4,74,29.92,10.0,WNW,12.7,21.9,N/A,,Overcast,290,2014-01-17 15:55:00
10:15 AM,13.6,6.4,73,29.92,10.0,WNW,9.2,18.4,N/A,,Overcast,290,2014-01-17 16:15:00
10:35 AM,14.4,6.4,71,29.92,10.0,West,11.5,-,N/A,,Mostly Cloudy,280,2014-01-17 16:35:00
10:55 AM,15.6,7.5,70,29.92,10.0,WNW,15.0,19.6,N/A,,Overcast,300,2014-01-17 16:55:00
11:15 AM,15.4,7.5,71,29.92,10.0,WNW,10.4,17.3,N/A,,Overcast,290,2014-01-17 17:15:00
11:35 AM,15.8,8.2,72,29.91,7.0,West,10.4,16.1,N/A,,Overcast,280,2014-01-17 17:35:00
11:55 AM,16.5,8.6,71,29.91,7.0,West,12.7,18.4,N/A,,Overcast,280,2014-01-17 17:55:00
12:15 PM,16.3,9.0,73,29.91,5.0,WNW,12.7,-,N/A,Snow,Light Snow,290,2014-01-17 18:15:00
12:35 PM,16.3,9.3,74,29.91,5.0,West,12.7,21.9,N/A,Snow,Light Snow,270,2014-01-17 18:35:00
12:55 PM,16.7,9.3,73,29.90,5.0,West,16.1,21.9,N/A,Snow,Light Snow,280,2014-01-17 18:55:00
1:15 PM,16.5,10.4,77,29.91,3.0,West,12.7,21.9,N/A,Snow,Light Snow,280,2014-01-17 19:15:00
1:35 PM,16.3,10.4,77,29.91,2.0,West,15.0,18.4,N/A,Snow,Light Snow,280,2014-01-17 19:35:00
1:55 PM,16.3,10.0,76,29.92,4.0,WNW,13.8,-,N/A,Snow,Light Snow,290,2014-01-17 19:55:00
2:15 PM,16.7,10.4,76,29.92,5.0,West,13.8,21.9,N/A,Snow,Light Snow,280,2014-01-17 20:15:00
2:35 PM,16.7,10.2,76,29.93,7.0,West,13.8,21.9,N/A,Snow,Light Snow,280,2014-01-17 20:35:00
2:55 PM,16.7,10.4,76,29.94,5.0,West,15.0,21.9,N/A,Snow,Light Snow,280,2014-01-17 20:55:00
3:15 PM,16.5,10.8,78,29.94,3.0,West,15.0,19.6,N/A,Snow,Light Snow,270,2014-01-17 21:15:00
3:35 PM,16.3,10.9,79,29.96,3.0,West,16.1,21.9,N/A,Snow,Light Snow,280,2014-01-17 21:35:00
3:55 PM,16.3,10.8,79,29.97,4.0,West,12.7,20.7,N/A,Snow,Light Snow,280,2014-01-17 21:55:00
4:15 PM,16.3,11.3,81,29.98,3.0,West,13.8,23.0,N/A,Snow,Light Snow,280,2014-01-17 22:15:00
4:35 PM,16.2,10.6,79,29.98,5.0,West,12.7,20.7,N/A,Snow,Light Snow,280,2014-01-17 22:35:00
4:55 PM,16.3,11.3,81,29.98,5.0,West,10.4,-,N/A,Snow,Light Snow,280,2014-01-17 22:55:00
5:15 PM,16.0,10.9,81,29.99,5.0,West,12.7,18.4,N/A,Snow,Light Snow,280,2014-01-17 23:15:00
5:35 PM,15.8,10.4,79,30.00,7.0,West,10.4,-,N/A,Snow,Light Snow,280,2014-01-17 23:35:00
5:55 PM,16.3,10.4,77,30.00,10.0,West,11.5,-,N/A,Snow,Light Snow,280,2014-01-17 23:55:00
6:15 PM,16.3,10.4,77,30.00,10.0,WNW,10.4,-,N/A,Snow,Light Snow,290,2014-01-18 00:15:00
6:35 PM,16.3,10.4,77,30.00,10.0,WNW,12.7,-,N/A,Snow,Light Snow,290,2014-01-18 00:35:00
6:55 PM,16.2,10.4,78,30.01,10.0,West,12.7,17.3,N/A,Snow,Light Snow,280,2014-01-18 00:55:00
7:15 PM,15.8,9.9,77,30.01,10.0,West,13.8,17.3,N/A,Snow,Light Snow,280,2014-01-18 01:15:00
7:35 PM,15.6,9.5,77,30.00,10.0,West,13.8,-,N/A,Snow,Light Snow,280,2014-01-18 01:35:00
7:55 PM,15.6,9.5,77,30.00,10.0,West,11.5,16.1,N/A,,Overcast,280,2014-01-18 01:55:00
8:15 PM,15.6,9.3,76,30.01,10.0,WNW,11.5,-,N/A,Snow,Light Snow,290,2014-01-18 02:15:00
8:35 PM,15.1,8.8,76,30.01,10.0,WNW,12.7,17.3,N/A,Snow,Light Snow,290,2014-01-18 02:35:00
8:55 PM,14.7,8.4,76,30.01,10.0,West,11.5,17.3,N/A,,Overcast,280,2014-01-18 02:55:00
9:15 PM,14.0,8.1,77,30.02,10.0,West,9.2,-,N/A,,Scattered Clouds,280,2014-01-18 03:15:00
9:35 PM,13.6,7.7,77,30.01,10.0,WNW,9.2,-,N/A,,Mostly Cloudy,290,2014-01-18 03:35:00
9:55 PM,13.6,7.7,77,30.00,10.0,WNW,10.4,-,N/A,,Overcast,290,2014-01-18 03:55:00
10:15 PM,13.5,7.7,78,30.00,10.0,West,8.1,-,N/A,,Overcast,280,2014-01-18 04:15:00
10:35 PM,13.6,7.7,77,29.99,10.0,WNW,8.1,-,N/A,,Overcast,290,2014-01-18 04:35:00
10:55 PM,13.1,7.5,78,29.99,10.0,WNW,6.9,-,N/A,,Overcast,290,2014-01-18 04:55:00
11:15 PM,12.6,6.8,78,29.99,10.0,West,9.2,-,N/A,,Mostly Cloudy,280,2014-01-18 05:15:00
11:35 PM,12.0,6.6,79,29.98,10.0,West,5.8,-,N/A,,Scattered Clouds,270,2014-01-18 05:35:00
11:55 PM,11.3,6.4,81,29.97,10.0,West,9.2,-,N/A,,Scattered Clouds,270,2014-01-18 05:55:00